Date,TemperatureHighF,TemperatureAvgF,TemperatureLowF,DewpointHighF,DewpointAvgF,DewpointLowF,HumidityHigh,HumidityAvg,HumidityLow,PressureMaxIn,PressureMinIn,WindSpeedMaxMPH,WindSpeedAvgMPH,GustSpeedMaxMPH,PrecipitationSumIn
2013-2-1,68.6,51.2,38.7,39.5,26.4,14.7,77,42,21,29.80,29.66,0,0,2,0.00
2013-2-2,72.2,53.1,36.4,41.9,33.0,23.2,92,53,21,29.75,29.57,0,0,4,0.00
2013-2-3,70.0,53.8,39.3,45.4,37.8,21.6,100,62,24,29.63,29.48,0,0,2,0.00
2013-2-4,71.8,52.2,36.6,48.6,34.5,19.8,100,61,21,29.58,29.47,0,0,4,0.00
2013-2-5,77.6,56.2,36.7,53.6,40.5,32.8,100,65,21,29.54,29.42,0,0,4,0.00
2013-2-6,80.1,65.1,52.0,65.0,56.5,48.5,100,78,35,29.55,29.45,0,0,1,0.00
2013-2-7,81.4,69.8,60.7,65.7,60.3,51.0,100,76,39,29.50,29.26,7,0,14,0.00
2013-2-8,78.9,67.6,55.5,66.5,57.5,44.5,100,76,32,29.49,29.27,2,0,7,0.00
2013-2-9,74.5,59.4,48.6,58.2,51.6,43.3,100,80,34,29.63,29.48,1,0,6,0.00
2013-2-10,78.7,64.2,50.4,60.3,54.0,44.3,100,74,33,29.70,29.58,1,0,10,0.00
2013-2-11,83.0,67.8,53.3,66.2,57.2,49.2,100,74,32,29.64,29.47,2,0,15,0.00
2013-2-12,85.0,69.8,56.2,71.0,60.7,51.9,100,78,33,29.51,29.31,8,0,14,0.00
2013-2-13,86.1,70.7,60.1,73.4,65.6,57.9,100,87,39,29.37,29.20,3,0,17,0.51
2013-2-14,64.1,59.1,53.3,63.9,58.7,53.3,100,99,86,29.47,29.32,0,0,4,0.22
2013-2-15,69.7,55.7,49.5,61.2,53.0,49.3,100,92,59,29.51,29.36,0,0,1,0.01
2013-2-16,67.9,54.0,45.6,55.9,38.2,10.9,100,63,21,29.56,29.32,2,0,14,0.00
2013-2-17,54.9,41.6,30.3,23.9,11.0,3.1,77,30,21,29.78,29.56,2,0,16,0.00
2013-2-18,68.8,47.1,26.3,44.1,28.9,8.2,94,57,21,29.80,29.63,0,0,2,0.00
2013-2-19,78.9,60.0,41.6,58.9,46.0,35.1,100,69,22,29.65,29.46,2,0,15,0.00
2013-2-20,78.0,62.9,54.7,59.4,53.9,47.8,100,76,37,29.55,29.41,0,0,1,0.00
2013-2-21,85.0,67.7,52.0,67.2,56.6,46.6,100,73,27,29.52,29.38,0,0,2,0.00
2013-2-22,88.2,72.6,60.9,72.5,63.6,48.9,100,80,27,29.49,29.36,2,0,9,0.01
2013-2-23,87.0,73.8,66.8,73.3,65.0,51.3,100,79,31,29.42,29.25,5,0,12,0.02
2013-2-24,74.0,67.8,62.8,73.9,67.8,62.9,100,100,99,29.36,29.26,4,0,11,0.22
2013-2-25,85.0,69.7,59.2,76.1,63.5,51.6,100,86,34,29.33,29.15,0,0,6,0.20
2013-2-26,74.0,68.2,60.7,74.1,68.1,60.7,100,100,90,29.27,29.12,4,0,19,0.25
2013-2-27,75.6,63.2,53.8,60.7,54.8,44.1,100,78,37,29.38,29.25,0,0,4,0.00
2013-2-28,74.5,59.4,47.2,56.4,46.5,26.1,100,70,21,29.40,29.27,0,0,6,0.00